Overview Statistics Trail Chart Weather Telemetry Raw packets
 

This is the latest recevied weather packets stored in our database for station/object SV9TNF-51. If no packets are shown the sender has not sent any weather packets the latest 10 day(s).

<< 97 98 99 100 101 102 103 >>
Time Temp. Humidity Pressure Rain* Wind** Luminosity Snow
1787934987 31.67° C 41% 1011.2 hPa 0 mm 0.45 m/s, 124° - -
1787934687 31.67° C 41% 1011.2 hPa 0 mm 1.79 m/s, 123° - -
1787934386 31.67° C 41% 1011.2 hPa 0 mm 0 m/s - -
1787934087 31.67° C 41% 1011.2 hPa 0 mm 0 m/s - -
1787933786 31.67° C 40% 1011.2 hPa 0 mm 1.34 m/s, 117° - -
1787933486 32.22° C 39% 1011.2 hPa 0 mm 1.79 m/s, 125° - -
1787933186 32.22° C 40% 1011.2 hPa 0 mm 1.79 m/s, 139° - -
1787932886 32.22° C 39% 1011.2 hPa 0 mm 1.79 m/s, 126° - -
1787932586 32.78° C 38% 1011.2 hPa 0 mm 1.79 m/s, 134° - -
1787932286 32.78° C 39% 1011.2 hPa 0 mm 0.89 m/s, 119° - -
1787931986 32.78° C 39% 1011.2 hPa 0 mm 3.13 m/s, 127° - -
1787931686 33.33° C 38% 1011.2 hPa 0 mm 0 m/s - -
1787931389 33.33° C 38% 1011.2 hPa 0 mm 1.79 m/s, 127° - -
1787931086 33.33° C 38% 1011.2 hPa 0 mm 0 m/s - -
1787930785 33.33° C 38% 1011.2 hPa 0 mm 1.34 m/s, 95° - -
1787930485 33.89° C 38% 1011.2 hPa 0 mm 1.79 m/s, 134° - -
1787930185 33.89° C 36% 1011.2 hPa 0 mm 1.79 m/s, 123° - -
1787929885 34.44° C 36% 1011.2 hPa 0 mm 1.34 m/s, 121° - -
1787929585 34.44° C 35% 1011.2 hPa 0 mm 0 m/s - -
1787929285 34.44° C 36% 1011.2 hPa 0 mm 2.24 m/s, 132° - -
1787928985 34.44° C 36% 1011.2 hPa 0 mm 1.79 m/s, 128° - -
1787928691 35.56° C 35% 1011.2 hPa 0 mm 0 m/s - -
1787928385 35° C 35% 1011.2 hPa 0 mm 4.02 m/s, 124° - -
1787928085 35° C 35% 1011.2 hPa 0 mm 1.34 m/s, 120° - -
1787927784 35° C 35% 1011.2 hPa 0 mm 1.34 m/s, 120° - -

* Rain latest hour (hover to see other rain measurements)
** Current wind speed in m/s (hover to see current wind gust speed)